Printer-friendly version

IAU Minor Planet Center

Minor Planet Center

MPEC 2003-S71 : 2000 UL11

The following Minor Planet Electronic Circular may be linked-to from your own Web pages, but must not otherwise be redistributed electronically.


Read MPEC 2003-S70 Read MPEC 2003-S72


M.P.E.C. 2003-S71                                Issued 2003 Sept. 27, 20:37 UT

     The Minor Planet Electronic Circulars contain information on unusual
         minor planets and routine data on comets.  They are published
   on behalf of Commission 20 of the International Astronomical Union by the
          Minor Planet Center, Smithsonian Astrophysical Observatory,
                          Cambridge, MA 02138, U.S.A.

         Supported in part by the Steven and Michele Kirsch Foundation
             Prepared using the Tamkin Foundation Computer Network

                              MPC@CFA.HARVARD.EDU
          URL http://cfa-www.harvard.edu/iau/mpc.html  ISSN 1523-6714

                                   2000 UL11

                           Revision to MPEC 2000-U28

Additional Observations:
     K00U11L  C2003 09 20.31673 00 35 08.76 +06 14 04.9          21.7 V      291
     K00U11L  C2003 09 20.34022 00 35 06.80 +06 13 56.3          21.4 V      291
     K00U11L  C2003 09 20.36355 00 35 04.81 +06 13 47.5          21.3 V      291
     K00U11L  C2003 09 27.27037 00 24 40.49 +05 24 27.0          20.9 V      291
     K00U11L  C2003 09 27.27774 00 24 39.73 +05 24 23.2          21.1 V      291
     K00U11L  C2003 09 27.28539 00 24 38.94 +05 24 19.5          21.0 V      291

Observer details:
291 LPL/Spacewatch II.  Observer A. E. Gleason.  1.8-m f/2.7 reflector + CCD.

First and last observations above in comparison with prediction:
Residuals in seconds of arc (or two decimals in degrees), reference and Delta-T
030920 291 0.83- 0.40-    030927 291 0.87- 0.43-    MPO  7609   +1.3 day

Orbital elements:
2000 UL11                                                            PHA 0.022
Epoch 2003 Dec. 27.0 TT = JDT 2453000.5                 MPC
M 346.68145              (2000.0)            P               Q
n   0.31794748     Peri.  151.02320     -0.57075965     -0.82094562
a   2.1260124      Node   333.76924     +0.74585326     -0.50978625
e   0.6348741      Incl.    2.17631     +0.34341860     -0.25722806
P   3.10           H   20.2           G   0.15           U   2
Residuals in seconds of arc
001025 704  0.2-  0.3+    001028 046  0.2+  0.2-    001111 151  0.5+  0.2-
001025 704  0.2-  0.3+    001028 046  0.1-  0.0     001111 046  0.2-  0.2+
001025 704  0.4+  0.9-    001028 046  0.2-  0.1+    001111 046  0.3-  0.1-
001026 704  0.1-  0.1-    001030 704  0.0   0.6+    001111 046  0.2-  0.1-
001026 704  0.2-  0.0     001030 704  0.2-  0.6+    001111 151 (2.8+  1.4-)
001026 704  0.1-  0.3+    001030 704  0.3-  0.2+    001111 151  0.3+  0.5-
001026 704  0.2-  0.3+    001030 704  0.0   0.8+    001111 151  0.4+  0.2-
001026 704  0.1+  0.3-    001030 704  0.1-  0.4+    001111 046  0.0   0.1+
001026 704  0.1+  0.3+    001031 704  0.2-  0.0     001111 151  0.1+  0.7-
001026 704  0.1-  0.6+    001031 704  0.5-  0.6+    001111 046  0.2-  0.2+
001026 402  0.0   0.6-    001031 704  0.3-  0.6+    001113 300  0.2+  1.1-
001026 402  0.4-  0.7-    001031 704  0.3-  0.3+    001113 300  0.1+  0.3-
001026 402  0.0   0.3-    001031 704  0.2-  0.9+    001114 670  0.3-  0.1+
001026 402  0.5-  0.4-    001104 587  1.2+  1.3+    001114 670  0.1+  0.3+
001026 557  0.1+  0.2+    001104 587  0.1-  0.3+    001114 670  0.2+  0.3-
001026 557  0.1+  0.2-    001105 151  0.3-  0.8+    001114 300  0.1-  0.3-
001026 557  0.1+  0.1+    001105 151  0.4-  0.3+    001114 300  0.2+  0.6+
001027 704  0.5+  0.7+    001105 151  0.1+  0.2+    001117 300  0.7-  0.3-
001027 704  0.1+  0.2-    001105 151  0.1-  0.4+    001117 300  0.4-  0.2-
001027 704  0.1+  0.0     001105 151  0.7+  0.4+    001117 300  0.2-  0.5+
001027 704  0.1+  0.1+    001106 046  0.0   0.2+    001117 300  0.6+  0.4-
001027 704  0.4+  0.3-    001106 046  0.0   0.3+    001117 300  0.1-  0.2+
001027 151  0.0   0.6-    001106 046  0.1-  0.2+    001117 300  0.3+  0.4-
001027 151  0.2+  0.7-    001106 046  0.1-  0.1+    001119 118  0.2-  0.1+
001027 151  0.0   0.5-    001106 704  0.3+  0.1+    001119 118  0.1-  0.1-
001027 587  0.1+  0.6-    001106 704  0.1+  0.1+    001119 118  0.2-  0.3+
001027 151  0.7-  1.4-    001106 704  0.1+  0.2+    001122 696  0.6+  0.4+
001027 151  0.3-  0.4-    001106 704  0.2+  0.4+    001122 696  0.2+  0.6+
001027 151  0.2-  0.4-    001106 704  0.2+  0.3+    001122 300  0.6+  0.5+
001028 151  0.2+  0.8-    001106 402  0.0   0.3-    001122 300  0.6+  0.9-
001028 151  0.1+  0.6-    001106 402  0.2+  0.1-    001122 300  0.5-  0.2-
001028 151  0.4-  0.9-    001106 402  0.2-  0.6-    001122 300  0.1+  0.4+
001028 151  0.2-  0.6-    001109 118  0.3+  0.0     030920 291  0.4-  0.0
001028 151  0.9+  0.2-    001109 118  0.1+  0.1-    030920 291  0.2+  0.1+
001028 151  1.4-  1.5+    001109 118  0.1-  0.2-    030920 291  0.1+  0.0
001028 118  0.1+  0.2+    001111 046  0.1+  0.0     030927 291  0.0   0.4+
001028 118  0.6-  0.0     001111 151  0.3+  0.1+    030927 291  0.1-  0.1+
001028 046  0.0   0.1-    001111 046  0.0   0.4-    030927 291  0.2-  0.2+
001028 046  0.2+  0.2-    001111 046  0.1-  0.4-

Ephemeris:
2000 UL11                a,e,i = 2.13, 0.63, 2                   q = 0.7763
Date    TT    R. A. (2000) Decl.     Delta      r     Elong.  Phase     V
2003 09 28    00 23.46   +05 18.6    0.831    1.832   176.0     2.2    21.4
2003 10 08    00 05.19   +03 44.7    0.756    1.746   168.1     6.8    21.3
2003 10 18    23 45.36   +01 56.7    0.706    1.658   153.1    15.8    21.4
2003 10 28    23 26.67   +00 10.7    0.678    1.566   138.2    25.0    21.5
2003 11 07    23 11.70   -01 16.3    0.666    1.473   124.2    33.8    21.6
2003 11 17    23 01.92   -02 14.0    0.662    1.377   111.6    41.9    21.6
2003 11 27    22 57.73   -02 39.1    0.658    1.280   100.4    49.3    21.7
2003 12 07    22 58.74   -02 32.8    0.647    1.184    90.5    56.3    21.7
2003 12 17    23 04.09   -01 59.5    0.626    1.089    81.8    63.5    21.6
2003 12 27    23 12.72   -01 05.1    0.590    0.998    74.0    71.4    21.5
2004 01 06    23 23.22   +00 01.4    0.537    0.915    66.7    80.7    21.5
2004 01 16    23 33.37   +01 03.8    0.469    0.846    59.3    92.3    21.5
2004 01 26    23 39.62   +01 33.9    0.387    0.798    50.7   107.2    21.7
2004 02 05    23 35.54   +00 38.8    0.301    0.777    39.3   126.5    22.4
2004 02 15    23 10.21   -03 17.0    0.221    0.786    21.8   152.2    25.3
2004 02 25    22 09.01   -12 01.6    0.166    0.825     5.7   173.1    37.3
2004 03 06    20 30.41   -23 10.4    0.148    0.887    41.6   132.0    21.7
2004 03 16    18 49.98   -29 39.2    0.163    0.965    74.9    95.7    19.6
2004 03 26    17 32.77   -31 13.9    0.195    1.054   101.4    68.2    19.2
2004 04 05    16 34.17   -30 24.1    0.235    1.147   123.7    46.5    19.1
2004 04 15    15 48.24   -28 22.7    0.285    1.244   143.4    28.7    19.2
2004 04 25    15 13.16   -25 51.8    0.349    1.341   160.7    14.4    19.4
2004 05 05    14 48.46   -23 26.6    0.430    1.437   172.8     5.0    19.6
2004 05 15    14 32.77   -21 28.0    0.529    1.531   166.7     8.7    20.3
2004 05 25    14 24.31   -20 02.3    0.646    1.623   155.7    14.9    21.1
2004 06 04    14 21.46   -19 08.3    0.778    1.713   145.4    19.6    21.8
2004 06 14    14 22.76   -18 40.4    0.925    1.800   136.1    23.0    22.4

Gareth V. Williams           (C) Copyright 2003 MPC           M.P.E.C. 2003-S71

Read MPEC 2003-S70 Read MPEC 2003-S72


Our Web policy. Index to the CBAT/MPC/ICQ pages.


Valid HTML 4.01!